| time (UTC) | temp F | wind direction | speed knots | gust knots | rain 1hr in | rain 24hr in | rain mn in | humidity % | barometer mb |
| 20260905184555 | 64 | 335 | 0.9 | 4.3 | 0.00 | 0.02 | 0.00 | 73 | 1017.2 |
| 20260905183058 | 64 | 278 | 2.6 | 7.0 | 0.00 | 0.02 | 0.00 | 74 | 1017.4 |
| 20260905181554 | 63 | 253 | 0.9 | 4.3 | 0.00 | 0.02 | 0.00 | 75 | 1017.6 |
| 20260905180108 | 63 | 0 | 3.5 | 5.2 | 0.00 | 0.02 | 0.00 | 74 | 1017.5 |
| 20260905174558 | 62 | 0 | 1.7 | 5.2 | 0.00 | 0.02 | 0.00 | 76 | 1017.5 |
| 20260905173052 | 61 | 74 | 0.9 | 2.6 | 0.00 | 0.02 | 0.00 | 87 | 1017.6 |
| 20260905171559 | 57 | 0 | 0.0 | 0.0 | 0.00 | 0.02 | 0.00 | 89 | 1017.7 |
| 20260905170058 | 56 | 0 | 0.0 | 0.0 | 0.00 | 0.02 | 0.00 | 90 | 1017.7 |
| 20260905164555 | 56 | 0 | 0.0 | 0.0 | 0.00 | 0.02 | 0.00 | 91 | 1017.7 |
| 20260905163101 | 55 | 0 | 0.0 | 0.0 | 0.00 | 0.02 | 0.00 | 91 | 1017.7 |
| 20260905161558 | 55 | 0 | 0.0 | 1.7 | 0.00 | 0.02 | 0.00 | 92 | 1017.7 |
| 20260905160058 | 54 | 0 | 0.0 | 0.0 | 0.00 | 0.02 | 0.00 | 92 | 1017.7 |
| 20260905154556 | 53 | 0 | 0.0 | 0.0 | 0.00 | 0.02 | 0.00 | 92 | 1017.8 |
| 20260905153058 | 53 | 0 | 0.0 | 0.0 | 0.00 | 0.02 | 0.00 | 93 | 1017.8 |
| 20260905151554 | 52 | 0 | 0.0 | 0.0 | 0.00 | 0.02 | 0.00 | 93 | 1017.8 |
| 20260905150058 | 52 | 0 | 0.0 | 2.6 | 0.00 | 0.02 | 0.00 | 93 | 1017.9 |
| 20260905144602 | 52 | 0 | 0.0 | 0.0 | 0.00 | 0.02 | 0.00 | 93 | 1017.7 |
| 20260905143056 | 51 | 0 | 0.0 | 0.0 | 0.00 | 0.02 | 0.00 | 93 | 1017.6 |
| 20260905141550 | 51 | 0 | 0.0 | 0.0 | 0.00 | 0.02 | 0.00 | 93 | 1017.6 |
| 20260905140100 | 51 | 0 | 0.0 | 0.0 | 0.00 | 0.02 | 0.00 | 92 | 1017.6 |
| 20260905134558 | 51 | 0 | 0.0 | 0.0 | 0.00 | 0.02 | 0.00 | 92 | 1017.4 |
| 20260905133052 | 52 | 0 | 0.0 | 0.0 | 0.00 | 0.02 | 0.00 | 91 | 1017.4 |
| 20260905131552 | 52 | 0 | 0.0 | 0.0 | 0.00 | 0.02 | 0.00 | 91 | 1017.3 |
| 20260905130053 | 52 | 0 | 0.0 | 0.0 | 0.00 | 0.02 | 0.00 | 91 | 1017.2 |
| 20260905124553 | 52 | 0 | 0.0 | 0.0 | 0.00 | 0.05 | 0.00 | 91 | 1017.2 |
| 20260905123052 | 52 | 0 | 0.0 | 0.0 | 0.00 | 0.05 | 0.00 | 91 | 1017.2 |
| 20260905121555 | 52 | 0 | 0.0 | 0.0 | 0.00 | 0.05 | 0.00 | 92 | 1017.2 |
| 20260905114552 | 53 | 0 | 0.0 | 2.6 | 0.00 | 0.07 | 0.00 | 92 | 1017.2 |
| 20260905113054 | 53 | 170 | 0.0 | 2.6 | 0.00 | 0.07 | 0.00 | 92 | 1017.1 |
| 20260905111645 | 53 | 0 | 0.0 | 1.7 | 0.00 | 0.07 | 0.00 | 92 | 1017.0 |
| 20260905110052 | 53 | 0 | 0.0 | 1.7 | 0.00 | 0.07 | 0.00 | 92 | 1017.0 |
| 20260905104547 | 53 | 0 | 0.0 | 0.9 | 0.00 | 0.07 | 0.00 | 92 | 1017.2 |
| 20260905103055 | 53 | 165 | 0.9 | 1.7 | 0.00 | 0.07 | 0.00 | 92 | 1017.2 |
| 20260905101553 | 53 | 0 | 0.0 | 0.9 | 0.00 | 0.07 | 0.00 | 92 | 1017.1 |
| 20260905100106 | 53 | 166 | 0.9 | 3.5 | 0.00 | 0.07 | 0.00 | 92 | 1017.0 |
| 20260905094553 | 53 | 0 | 0.0 | 0.0 | 0.00 | 0.07 | 0.00 | 91 | 1017.0 |
| 20260905093059 | 53 | 0 | 0.0 | 0.0 | 0.00 | 0.07 | 0.00 | 91 | 1017.0 |
| 20260905091600 | 53 | 0 | 0.0 | 0.0 | 0.00 | 0.07 | 0.00 | 91 | 1016.9 |
| 20260905090047 | 53 | 0 | 0.0 | 0.9 | 0.00 | 0.07 | 0.00 | 91 | 1016.8 |
| 20260905084553 | 54 | 172 | 0.9 | 1.7 | 0.00 | 0.07 | 0.00 | 91 | 1016.8 |
| 20260905083051 | 54 | 0 | 0.0 | 1.7 | 0.00 | 0.07 | 0.00 | 90 | 1016.8 |
| 20260905081559 | 54 | 0 | 0.0 | 0.9 | 0.00 | 0.07 | 0.00 | 90 | 1016.6 |
| 20260905080057 | 54 | 0 | 0.0 | 0.9 | 0.00 | 0.07 | 0.00 | 91 | 1016.6 |
| 20260905074544 | 54 | 0 | 0.0 | 0.0 | 0.00 | 0.08 | 0.00 | 90 | 1016.7 |
| 20260905073058 | 54 | 0 | 0.0 | 0.0 | 0.00 | 0.08 | 0.00 | 90 | 1016.7 |
| 20260905071556 | 55 | 0 | 0.0 | 0.0 | 0.00 | 0.08 | 0.00 | 90 | 1016.5 |
| 20260905070056 | 55 | 0 | 0.0 | 0.9 | 0.00 | 0.08 | 0.00 | 90 | 1016.5 |
| 20260905064555 | 55 | 172 | 0.9 | 2.6 | 0.00 | 0.08 | 0.08 | 89 | 1016.4 |
| 20260905063101 | 55 | 0 | 0.0 | 0.9 | 0.00 | 0.08 | 0.08 | 89 | 1016.2 |
| 20260905061610 | 55 | 0 | 0.0 | 2.6 | 0.00 | 0.08 | 0.08 | 90 | 1016.1 |
| 20260905060056 | 55 | 0 | 0.0 | 2.6 | 0.00 | 0.08 | 0.08 | 91 | 1016.0 |
| 20260905054547 | 55 | 130 | 0.9 | 2.6 | 0.00 | 0.08 | 0.08 | 91 | 1016.0 |
| 20260905053101 | 55 | 150 | 0.0 | 2.6 | 0.00 | 0.08 | 0.08 | 92 | 1015.9 |
| 20260905051550 | 55 | 153 | 0.0 | 2.6 | 0.00 | 0.08 | 0.08 | 92 | 1015.9 |
| 20260905050058 | 55 | 167 | 1.7 | 3.5 | 0.00 | 0.08 | 0.08 | 91 | 1015.8 |
| 20260905044550 | 55 | 0 | 0.0 | 2.6 | 0.00 | 0.08 | 0.08 | 91 | 1015.8 |
| 20260905043055 | 55 | 0 | 0.0 | 0.0 | 0.00 | 0.08 | 0.08 | 91 | 1015.9 |
| 20260905041554 | 55 | 0 | 0.0 | 0.0 | 0.00 | 0.08 | 0.08 | 91 | 1015.8 |
| 20260905040050 | 56 | 0 | 0.0 | 0.0 | 0.00 | 0.08 | 0.08 | 91 | 1015.7 |
| 20260905034554 | 56 | 0 | 0.0 | 0.0 | 0.00 | 0.08 | 0.08 | 91 | 1015.5 |
| 20260905033053 | 56 | 0 | 0.0 | 0.0 | 0.00 | 0.08 | 0.08 | 90 | 1015.4 |
| 20260905031552 | 56 | 0 | 0.0 | 0.0 | 0.00 | 0.08 | 0.08 | 90 | 1015.3 |
| 20260905030058 | 57 | 0 | 0.0 | 0.0 | 0.00 | 0.08 | 0.08 | 89 | 1015.1 |
| 20260905024555 | 57 | 0 | 0.0 | 0.0 | 0.00 | 0.08 | 0.08 | 88 | 1015.1 |
| 20260905023054 | 57 | 0 | 0.0 | 0.0 | 0.00 | 0.08 | 0.08 | 87 | 1015.2 |
| 20260905021549 | 58 | 0 | 0.0 | 0.0 | 0.00 | 0.08 | 0.08 | 86 | 1015.2 |
| 20260905020106 | 58 | 0 | 0.0 | 0.0 | 0.00 | 0.08 | 0.08 | 84 | 1015.0 |
| 20260905014553 | 58 | 0 | 0.0 | 0.0 | 0.00 | 0.08 | 0.08 | 84 | 1014.8 |
| 20260905013047 | 59 | 0 | 0.0 | 0.9 | 0.00 | 0.08 | 0.08 | 81 | 1014.8 |
| 20260905011545 | 59 | 0 | 0.0 | 0.9 | 0.00 | 0.08 | 0.08 | 77 | 1014.6 |
| 20260905010104 | 60 | 0 | 0.0 | 1.7 | 0.00 | 0.08 | 0.08 | 77 | 1014.5 |
| 20260905004611 | 60 | 96 | 0.0 | 1.7 | 0.00 | 0.09 | 0.08 | 78 | 1014.5 |
| 20260905003052 | 60 | 86 | 1.7 | 3.5 | 0.00 | 0.09 | 0.08 | 81 | 1014.5 |
| 20260905001554 | 59 | 94 | 1.7 | 6.1 | 0.00 | 0.09 | 0.08 | 85 | 1014.5 |
| 20260905000047 | 59 | 81 | 2.6 | 4.3 | 0.01 | 0.09 | 0.08 | 84 | 1014.4 |
| 20260904234557 | 59 | 121 | 0.9 | 2.6 | 0.01 | 0.15 | 0.08 | 84 | 1014.5 |
| 20260904233057 | 59 | 0 | 0.0 | 0.9 | 0.01 | 0.15 | 0.08 | 85 | 1014.4 |
| 20260904231548 | 59 | 0 | 0.0 | 0.9 | 0.01 | 0.15 | 0.08 | 83 | 1014.4 |
| 20260904230048 | 59 | 85 | 1.7 | 3.5 | 0.01 | 0.14 | 0.07 | 84 | 1014.4 |
| 20260904224553 | 59 | 175 | 0.9 | 1.7 | 0.01 | 0.14 | 0.07 | 82 | 1014.3 |
| 20260904223051 | 60 | 227 | 0.9 | 5.2 | 0.01 | 0.14 | 0.07 | 82 | 1014.4 |
| 20260904221558 | 60 | 181 | 1.7 | 6.1 | 0.01 | 0.14 | 0.07 | 79 | 1014.5 |
| 20260904220050 | 61 | 97 | 2.6 | 5.2 | 0.00 | 0.13 | 0.06 | 75 | 1014.3 |
| 20260904214604 | 63 | 256 | 2.6 | 11.3 | 0.00 | 0.13 | 0.06 | 70 | 1014.1 |
| 20260904213049 | 65 | 149 | 1.7 | 3.5 | 0.00 | 0.13 | 0.06 | 59 | 1013.5 |
| 20260904211605 | 66 | 0 | 0.0 | 3.5 | 0.00 | 0.13 | 0.06 | 58 | 1013.2 |
| 20260904210057 | 67 | 115 | 0.9 | 5.2 | 0.00 | 0.13 | 0.06 | 53 | 1013.0 |
| 20260904204549 | 67 | 86 | 2.6 | 5.2 | 0.00 | 0.13 | 0.06 | 55 | 1012.9 |
| 20260904203101 | 68 | 220 | 1.7 | 4.3 | 0.00 | 0.13 | 0.06 | 55 | 1012.7 |
| 20260904201559 | 68 | 280 | 1.7 | 7.0 | 0.00 | 0.13 | 0.06 | 53 | 1012.8 |
| 20260904194557 | 65 | 95 | 0.0 | 2.6 | 0.00 | 0.13 | 0.06 | 64 | 1013.1 |
| 20260904193053 | 65 | 0 | 0.0 | 0.0 | 0.00 | 0.13 | 0.06 | 69 | 1013.2 |
| 20260904191553 | 64 | 0 | 0.0 | 0.9 | 0.00 | 0.13 | 0.06 | 69 | 1013.3 |
| 20260904190056 | 64 | 53 | 0.9 | 2.6 | 0.00 | 0.13 | 0.06 | 67 | 1013.4 |